GW5798 Weather Reports


time (UTC)temp
C
wind
direction
speed
KPH
gust
KPH
rain 1hr
cm
rain 24hr
cm
rain mn
cm
humidity
%
barometer
mb
20260506185048 28 191 3.2 9.7 0.00 0.00 0.00 76 1009.7
20260506184058 29 125 0.0 3.2 0.00 0.00 0.00 77 1009.9
20260506183027 28 140 1.6 4.8 0.00 0.00 0.00 77 1010.1
20260506182017 28 161 1.6 3.2 0.00 0.00 0.00 79 1010.2
20260506181109 28 227 0.0 3.2 0.00 0.00 0.00 81 1010.4
20260506180058 28 165 1.6 6.4 0.00 0.00 0.00 80 1010.6
20260506175048 27 158 0.0 3.2 0.00 0.00 0.00 81 1010.9
20260506174038 27 168 0.0 3.2 0.00 0.00 0.00 81 1010.9
20260506173028 28 0.0 1.6 0.00 0.00 0.00 81 1011.2
20260506172018 27 160 1.6 6.4 0.00 0.00 0.00 82 1011.3
20260506171109 27 92 1.6 4.8 0.00 0.00 0.00 82 1011.3
20260506170119 27 195 1.6 4.8 0.00 0.00 0.00 84 1011.3
20260506165049 26 144 0.0 4.8 0.00 0.00 0.00 85 1011.3
20260506164139 26 271 1.6 11.3 0.00 0.00 0.00 85 1011.1
20260506163049 26 288 1.6 6.4 0.00 0.00 0.00 83 1011.2
20260506162019 27 257 0.0 3.2 0.00 0.00 0.00 82 1010.9
20260506161110 27 189 1.6 4.8 0.00 0.00 0.00 83 1010.8
20260506160100 26 161 0.0 3.2 0.00 0.00 0.00 83 1010.8
20260506155110 26 185 1.6 6.4 0.00 0.00 0.00 83 1010.7
20260506154100 26 184 1.6 11.3 0.00 0.00 0.00 84 1010.8
20260506153030 26 0.0 3.2 0.00 0.00 0.00 85 1010.7
20260506152020 26 70 1.6 4.8 0.00 0.00 0.00 85 1010.5
20260506151111 26 116 1.6 4.8 0.00 0.00 0.00 86 1010.3
20260506150101 26 187 0.0 6.4 0.00 0.00 0.00 86 1010.3
20260506145111 26 175 1.6 4.8 0.00 0.00 0.00 86 1010.3
20260506144041 26 91 0.0 3.2 0.00 0.00 0.00 87 1010.0
20260506143031 26 24 1.6 3.2 0.00 0.00 0.00 88 1009.7
20260506142021 26 149 1.6 4.8 0.00 0.00 0.00 89 1009.7
20260506141111 26 175 0.0 4.8 0.00 0.00 0.00 89 1009.9
20260506135051 25 183 0.0 3.2 0.00 0.00 0.00 91 1009.9
20260506134101 25 190 0.0 3.2 0.00 0.00 0.00 92 1010.1
20260506133031 25 144 1.6 4.8 0.00 0.00 0.00 93 1009.9
20260506132021 24 210 0.0 3.2 0.00 0.00 0.00 93 1010.2
20260506131112 24 172 0.0 1.6 0.00 0.00 0.00 94 1010.2
20260506125052 24 232 1.6 4.8 0.00 0.00 0.00 94 1010.3
20260506124042 24 211 0.0 3.2 0.00 0.00 0.00 95 1010.0
20260506123032 23 80 1.6 4.8 0.00 0.00 0.00 95 1009.9
20260506122022 23 0.0 1.6 0.00 0.00 0.00 95 1009.9
20260506121113 23 161 1.6 4.8 0.00 0.00 0.00 95 1009.7
20260506115053 23 180 0.0 4.8 0.00 0.00 0.00 95 1009.6
20260506114103 23 0.0 1.6 0.00 0.00 0.00 95 1009.4
20260506113033 23 0.0 1.6 0.00 0.00 0.00 95 1009.3
20260506112023 23 228 0.0 4.8 0.00 0.00 0.00 95 1009.1
20260506111114 23 161 1.6 3.2 0.00 0.00 0.00 95 1009.0
20260506110104 23 200 1.6 4.8 0.00 0.00 0.00 95 1009.0
20260506105114 23 115 1.6 4.8 0.00 0.00 0.00 94 1008.9
20260506104043 23 88 0.0 3.2 0.00 0.00 0.00 94 1008.8
20260506103033 23 115 0.0 3.2 0.00 0.00 0.00 94 1008.9
20260506102024 23 137 1.6 6.4 0.00 0.00 0.00 93 1008.8
20260506101115 23 252 1.6 6.4 0.00 0.00 0.00 93 1008.8
20260506100125 23 149 1.6 3.2 0.00 0.00 0.00 93 1008.7
20260506095054 23 171 1.6 9.7 0.00 0.00 0.00 93 1008.8
20260506094044 23 170 1.6 9.7 0.00 0.00 0.00 92 1008.6
20260506093034 23 160 3.2 11.3 0.00 0.00 0.00 92 1008.4
20260506092024 24 99 1.6 12.9 0.00 0.00 0.00 92 1008.6
20260506091115 24 209 1.6 9.7 0.00 0.00 0.00 91 1008.5
20260506090105 24 142 1.6 9.7 0.00 0.00 0.00 91 1008.6
20260506085055 24 127 1.6 6.4 0.00 0.00 0.00 91 1008.7
20260506084105 24 163 1.6 11.3 0.00 0.00 0.00 91 1008.7
20260506083055 24 127 1.6 6.4 0.00 0.00 0.00 91 1008.9
20260506082025 24 180 3.2 6.4 0.00 0.00 0.00 91 1008.9
20260506081116 24 161 1.6 4.8 0.00 0.00 0.00 91 1008.9
20260506080106 24 252 1.6 4.8 0.00 0.00 0.00 92 1009.0
20260506073036 24 125 1.6 3.2 0.00 0.00 0.00 92 1009.3
20260506072026 24 198 1.6 6.4 0.00 0.00 0.00 92 1009.5
20260506071016 24 157 1.6 6.4 0.00 0.00 0.00 92 1009.4
20260506070147 24 111 1.6 6.4 0.00 0.00 0.00 92 1009.5
20260506062107 24 121 1.6 6.4 0.00 0.00 0.00 92 1009.6
20260506061017 24 186 1.6 4.8 0.00 0.00 0.00 92 1009.8
20260506060107 24 257 1.6 3.2 0.00 0.00 0.00 92 1009.8
20260506051017 24 120 1.6 9.7 0.00 0.00 0.00 91 1009.8
20260506050108 24 185 1.6 4.8 0.00 0.00 0.00 91 1009.6
20260506045058 25 169 1.6 6.4 0.00 0.00 0.00 90 1009.7
20260506044048 25 184 1.6 4.8 0.00 0.00 0.00 89 1009.8
20260506043038 25 125 1.6 6.4 0.00 0.00 0.00 89 1009.7
20260506042028 25 147 1.6 4.8 0.00 0.00 0.00 88 1009.6
20260506041018 25 193 3.2 11.3 0.00 0.00 0.00 87 1009.4
20260506040209 25 230 3.2 9.7 0.00 0.00 0.00 86 1009.6
20260506035059 25 135 1.6 3.2 0.00 0.00 0.00 86 1009.4
20260506034049 25 213 1.6 9.7 0.00 0.00 0.00 86 1009.4
20260506033039 25 151 3.2 11.3 0.00 0.00 0.00 86 1009.1
20260506032049 25 162 1.6 6.4 0.00 0.00 0.00 86 1009.0
20260506031019 25 158 1.6 12.9 0.00 0.00 0.00 86 1008.8
20260506030130 25 197 1.6 6.4 0.00 0.00 0.00 85 1008.7
20260506025100 25 156 3.2 9.7 0.00 0.00 0.00 85 1008.8
20260506024109 25 136 3.2 9.7 0.00 0.00 0.00 85 1008.6
20260506023039 25 176 3.2 6.4 0.00 0.00 0.00 84 1008.5
20260506022029 26 166 3.2 11.3 0.00 0.00 0.00 84 1008.4
20260506021019 26 138 3.2 9.7 0.00 0.00 0.00 83 1008.3
20260506020110 26 144 3.2 9.7 0.00 0.00 0.00 82 1008.2
20260506015100 26 130 3.2 6.4 0.00 0.00 0.00 82 1008.0
20260506014050 26 169 3.2 11.3 0.00 0.00 0.00 81 1007.8
20260506013040 26 116 1.6 11.3 0.00 0.00 0.00 80 1007.8
20260506012050 26 194 1.6 6.4 0.00 0.00 0.00 79 1007.5
20260506011020 26 186 3.2 12.9 0.00 0.00 0.00 79 1007.3
20260506010111 26 172 3.2 9.7 0.00 0.00 0.00 79 1007.3
20260506005101 26 162 3.2 14.5 0.00 0.00 0.00 78 1007.2
20260506004051 26 176 3.2 9.7 0.00 0.00 0.00 78 1007.2
20260506003041 26 104 1.6 9.7 0.00 0.00 0.00 78 1007.1
20260506002051 27 164 3.2 11.3 0.00 0.00 0.00 77 1006.9
20260506001041 27 131 3.2 12.9 0.00 0.00 0.00 77 1007.1
20260506000112 27 145 1.6 6.4 0.00 0.00 0.00 78 1007.2
20260505235102 27 238 1.6 12.9 0.00 0.00 0.00 77 1007.0
20260505234052 27 178 6.4 12.9 0.00 0.00 0.00 76 1007.0
20260505233041 27 179 3.2 14.5 0.00 0.00 0.00 76 1007.0
20260505232032 27 138 1.6 12.9 0.00 0.00 0.00 76 1007.0
20260505231022 27 150 1.6 6.4 0.00 0.00 0.00 76 1006.9
20260505230112 27 165 3.2 14.5 0.00 0.00 0.00 76 1007.1
20260505225103 27 118 1.6 14.5 0.00 0.00 0.00 75 1006.9
20260505224053 27 222 1.6 11.3 0.00 0.00 0.00 75 1007.0
20260505223042 28 87 4.8 14.5 0.00 0.00 0.00 74 1007.1
20260505222032 28 247 3.2 9.7 0.00 0.00 0.00 73 1007.1
20260505221022 28 220 3.2 9.7 0.00 0.00 0.00 73 1007.1
20260505220113 28 127 3.2 12.9 0.00 0.00 0.00 73 1007.4
20260505215103 28 103 1.6 11.3 0.00 0.00 0.00 73 1007.3
20260505214113 28 166 3.2 11.3 0.00 0.00 0.00 71 1007.6
20260505213043 28 190 1.6 6.4 0.00 0.00 0.00 72 1007.5
20260505212033 28 118 4.8 14.5 0.00 0.00 0.00 73 1007.8
20260505211023 28 349 3.2 12.9 0.00 0.00 0.00 73 1008.0
20260505210134 28 137 4.8 11.3 0.00 0.00 0.00 73 1008.0
20260505205104 28 146 3.2 14.5 0.00 0.00 0.00 73 1008.3
20260505204054 28 94 3.2 16.1 0.00 0.00 0.00 73 1008.4
20260505203044 28 123 1.6 6.4 0.00 0.00 0.00 72 1008.4
20260505202054 28 143 3.2 11.3 0.00 0.00 0.00 72 1008.6
20260505201024 29 187 3.2 4.8 0.00 0.00 0.00 72 1008.7
20260505200115 28 315 1.6 14.5 0.00 0.00 0.00 73 1008.8
20260505195105 28 136 3.2 12.9 0.00 0.00 0.00 73 1008.9
20260505194115 28 125 3.2 6.4 0.00 0.00 0.00 74 1009.1
20260505193045 27 200 3.2 12.9 0.00 0.00 0.00 75 1009.0
20260505192035 28 130 3.2 12.9 0.00 0.00 0.00 74 1009.2
20260505191025 28 150 3.2 9.7 0.00 0.00 0.00 75 1009.3
20260505190115 28 174 3.2 4.8 0.00 0.00 0.00 74 1009.1